Vertical_Velocity
2 19 8 3 18 3 -2 -2 5 0 0 1 2 3 1 2 3 3 1 -0 -1 -2
6 -0 -7 9 5 17 9 5 -3 4 3 2 1 2 2 2 2 2 3 1 3 -2
2 12 8 10 -19 21 2 1 2 1 2 2 3 1 1 0 1 2 -0 2 2 3
13 21 2 -6 -17 5 7 -1 1 3 3 1 1 1 -1 -3 3 1 1 0 -0 -0
2 -5 8 47 8 1 12 5 -2 4 1 4 3 2 1 1 1 0 -3 -3 1 4
12 5 3 -10 -23 8 -1 11 -11 -12 14 -1 5 8 2 1 6 0 3 4 1 3
2 7 18 -1 2 -3 -11 6 -25 -6 -30 2 -6 -1 33 -12 3 -9 0 3 3 0
9 5 7 2 9 3 0 3 3 2 -7 -1 1 0 2 10 6 4 2 -7 5 -1
-2 7 3 7 4 8 5 9 3 -0 -1 4 -2 -2 -4 -2 2 2 2 0 4 4
1 1 1 -0 -2 -1 2 1 3 -1 4 1 7 3 3 0 2 2 4 3 1 1
2 5 2 5 2 3 2 2 -1 -2 -3 -2 2 2 1 -0 4 5 1 3 -7 -1
-1 -2 -4 -2 5 6 6 0 -4 -3 -5 -2 -2 6 -1 2 -0 3 1 1 6 -4
-3 -5 -1 -1 -1 0 -4 -1 -4 -4 -6 -2 0 6 -3 -2 0 -3 1 -5 -2 3
2 -0 -3 1 -0 1 -1 -0 2 4 4 0 -1 -1 -2 1 0 -1 -0 -1 -4 -1
Height
1445 1448 1458 1463 1467 1474 1481 1486 1492 1497 1502 1507 1511 1516 1520 1524 1528 1531 1535 1539 1542 1546
1444 1449 1457 1460 1461 1472 1476 1482 1487 1493 1498 1502 1506 1511 1516 1519 1523 1526 1530 1534 1538 1540
1442 1447 1453 1457 1457 1474 1473 1478 1483 1488 1493 1498 1502 1506 1511 1515 1519 1522 1525 1529 1533 1536
1445 1445 1449 1453 1460 1465 1468 1475 1480 1484 1489 1493 1497 1501 1505 1510 1514 1517 1520 1523 1526 1530
1446 1448 1451 1451 1455 1459 1465 1472 1476 1481 1483 1489 1492 1496 1499 1504 1508 1511 1514 1517 1521 1524
1444 1447 1447 1450 1458 1460 1463 1465 1471 1476 1476 1481 1485 1491 1495 1499 1501 1505 1509 1511 1515 1518
1441 1443 1446 1450 1453 1456 1459 1462 1468 1469 1476 1479 1483 1486 1488 1492 1494 1497 1501 1505 1507 1510
1442 1443 1445 1448 1451 1454 1458 1462 1465 1469 1470 1473 1476 1480 1484 1485 1488 1489 1493 1495 1498 1503
1444 1444 1446 1449 1451 1453 1457 1459 1461 1464 1467 1471 1473 1478 1480 1482 1483 1483 1484 1488 1492 1494
1446 1448 1449 1448 1451 1452 1455 1457 1459 1462 1465 1469 1473 1474 1476 1478 1479 1477 1479 1480 1484 1488
1445 1446 1448 1449 1450 1453 1455 1456 1457 1460 1463 1466 1469 1470 1471 1474 1473 1474 1474 1474 1478 1482
1447 1447 1446 1445 1446 1449 1451 1452 1455 1458 1459 1462 1464 1465 1466 1468 1467 1468 1467 1472 1473 1480
1448 1447 1448 1449 1449 1450 1451 1451 1452 1453 1457 1458 1460 1459 1460 1462 1463 1465 1465 1469 1473 1475
1447 1447 1447 1447 1448 1448 1448 1449 1450 1451 1451 1452 1454 1455 1458 1458 1460 1462 1465 1466 1470 1472